N192JP KSGJ-KDAB

Flight info

Callsign N192JP
Flight time 0h 40m
Altitude 1500
Route VFR
Aircraft C172/L-V/C

Departure

Time 2026-05-04 01:14
Airport Northeast Florida Regional Airport (KSGJ)

Arrival

Time 2026-05-04 01:54
Airport Daytona Beach International Airport (KDAB)
Time Latitude Longitude Altitude Speed Heading
2026-05-04 00:56 29.95786 -81.34103 7 ft 0 kts 70°
2026-05-04 01:06 29.95787 -81.34100 7 ft 3 kts 73°
2026-05-04 01:06 29.95761 -81.34084 7 ft 6 kts 181°
2026-05-04 01:06 29.95725 -81.34089 7 ft 7 kts 192°
2026-05-04 01:06 29.95658 -81.34088 7 ft 8 kts 169°
2026-05-04 01:07 29.95602 -81.34100 7 ft 8 kts 216°
2026-05-04 01:07 29.95566 -81.34119 7 ft 9 kts 200°
2026-05-04 01:07 29.95483 -81.34156 7 ft 8 kts 201°
2026-05-04 01:07 29.95454 -81.34168 7 ft 0 kts 199°
2026-05-04 01:08 29.95438 -81.34175 7 ft 5 kts 190°
2026-05-04 01:08 29.95418 -81.34164 7 ft 0 kts 110°
2026-05-04 01:11 29.95415 -81.34153 7 ft 4 kts 102°
2026-05-04 01:11 29.95410 -81.34103 7 ft 0 kts 55°
2026-05-04 01:13 29.95434 -81.34051 7 ft 30 kts 61°
2026-05-04 01:14 29.95677 -81.33521 141 ft 68 kts 56°
2026-05-04 01:14 29.95889 -81.33068 404 ft 63 kts 57°
2026-05-04 01:14 29.95903 -81.32586 648 ft 66 kts 114°
2026-05-04 01:14 29.95561 -81.32194 874 ft 68 kts 121°
2026-05-04 01:15 29.95254 -81.31722 1038 ft 76 kts 115°
2026-05-04 01:15 29.94991 -81.31186 1202 ft 80 kts 106°
2026-05-04 01:15 29.94840 -81.30780 1281 ft 85 kts 107°
2026-05-04 01:15 29.94383 -81.30004 1413 ft 99 kts 141°
2026-05-04 01:16 29.93724 -81.29699 1536 ft 101 kts 151°
2026-05-04 01:16 29.93089 -81.29475 1736 ft 96 kts 154°
2026-05-04 01:16 29.92437 -81.29263 1871 ft 97 kts 154°
2026-05-04 01:16 29.91763 -81.29069 1982 ft 102 kts 159°
2026-05-04 01:17 29.91287 -81.28982 2086 ft 101 kts 161°
2026-05-04 01:17 29.90374 -81.28785 2256 ft 101 kts 161°
2026-05-04 01:17 29.89892 -81.28700 2313 ft 106 kts 166°
2026-05-04 01:17 29.88922 -81.28587 2462 ft 106 kts 161°
2026-05-04 01:18 29.88214 -81.28427 2525 ft 104 kts 162°
2026-05-04 01:18 29.87481 -81.28286 2566 ft 104 kts 164°
2026-05-04 01:18 29.87007 -81.28206 2639 ft 101 kts 166°
2026-05-04 01:18 29.86034 -81.28141 2701 ft 104 kts 172°
2026-05-04 01:19 29.85333 -81.28085 2814 ft 96 kts 166°
2026-05-04 01:19 29.84665 -81.28029 2862 ft 97 kts 168°
2026-05-04 01:19 29.84034 -81.27985 2998 ft 90 kts 168°
2026-05-04 01:19 29.83397 -81.27919 3034 ft 94 kts 167°
2026-05-04 01:20 29.82731 -81.27892 3091 ft 96 kts 171°
2026-05-04 01:20 29.82078 -81.27845 3178 ft 93 kts 169°
2026-05-04 01:20 29.81442 -81.27792 3260 ft 91 kts 166°
2026-05-04 01:20 29.80786 -81.27728 3310 ft 94 kts 172°
2026-05-04 01:21 29.80159 -81.27682 3441 ft 86 kts 162°
2026-05-04 01:21 29.79569 -81.27538 3497 ft 88 kts 159°
2026-05-04 01:21 29.78967 -81.27378 3589 ft 87 kts 164°
2026-05-04 01:21 29.78353 -81.27273 3644 ft 89 kts 165°
2026-05-04 01:22 29.77715 -81.27277 3705 ft 95 kts 185°
2026-05-04 01:22 29.77065 -81.27322 3768 ft 92 kts 171°
2026-05-04 01:22 29.76446 -81.27180 3821 ft 92 kts 158°
2026-05-04 01:22 29.76045 -81.27032 3888 ft 89 kts 149°
2026-05-04 01:23 29.75488 -81.26691 3916 ft 93 kts 146°
2026-05-04 01:23 29.74704 -81.26255 3949 ft 94 kts 141°
2026-05-04 01:23 29.74160 -81.25839 3965 ft 94 kts 144°
2026-05-04 01:23 29.73580 -81.25499 4037 ft 92 kts 148°
2026-05-04 01:24 29.72981 -81.25212 4066 ft 95 kts 155°
2026-05-04 01:24 29.72328 -81.24986 4049 ft 97 kts 156°
2026-05-04 01:24 29.71709 -81.24649 3949 ft 98 kts 148°
2026-05-04 01:24 29.71138 -81.24347 3862 ft 83 kts 151°
2026-05-04 01:25 29.70641 -81.24062 3694 ft 78 kts 145°
2026-05-04 01:25 29.70151 -81.23755 3478 ft 81 kts 144°
2026-05-04 01:25 29.69637 -81.23493 3283 ft 82 kts 152°
2026-05-04 01:25 29.69122 -81.23251 3067 ft 82 kts 144°
2026-05-04 01:26 29.68623 -81.22974 2907 ft 78 kts 146°
2026-05-04 01:26 29.68135 -81.22707 2738 ft 76 kts 148°
2026-05-04 01:26 29.67638 -81.22491 2564 ft 75 kts 151°
2026-05-04 01:26 29.67138 -81.22338 2400 ft 74 kts 152°
2026-05-04 01:27 29.66651 -81.22168 2245 ft 71 kts 153°
2026-05-04 01:27 29.66167 -81.22042 2084 ft 74 kts 159°
2026-05-04 01:27 29.65667 -81.21931 1925 ft 72 kts 155°
2026-05-04 01:27 29.65199 -81.21751 1772 ft 73 kts 144°
2026-05-04 01:28 29.64699 -81.21555 1648 ft 74 kts 155°
2026-05-04 01:28 29.64200 -81.21432 1617 ft 70 kts 155°
2026-05-04 01:28 29.63729 -81.21315 1565 ft 71 kts 152°
2026-05-04 01:28 29.63414 -81.21196 1555 ft 68 kts 144°
2026-05-04 01:29 29.62827 -81.20901 1556 ft 70 kts 144°
2026-05-04 01:29 29.62373 -81.20708 1581 ft 67 kts 141°
2026-05-04 01:29 29.61947 -81.20478 1583 ft 69 kts 146°
2026-05-04 01:29 29.61496 -81.20270 1605 ft 69 kts 143°
2026-05-04 01:30 29.61042 -81.20038 1595 ft 70 kts 143°
2026-05-04 01:30 29.60596 -81.19813 1594 ft 71 kts 142°
2026-05-04 01:30 29.60298 -81.19646 1587 ft 70 kts 141°
2026-05-04 01:30 29.59744 -81.19310 1603 ft 71 kts 148°
2026-05-04 01:31 29.59231 -81.19219 1604 ft 74 kts 155°
2026-05-04 01:31 29.58777 -81.18981 1576 ft 73 kts 136°
2026-05-04 01:31 29.58325 -81.18675 1532 ft 76 kts 136°
2026-05-04 01:31 29.57851 -81.18354 1491 ft 79 kts 141°
2026-05-04 01:32 29.57342 -81.18085 1482 ft 78 kts 146°
2026-05-04 01:32 29.56831 -81.17851 1460 ft 79 kts 148°
2026-05-04 01:32 29.56312 -81.17619 1436 ft 80 kts 148°
2026-05-04 01:32 29.55780 -81.17417 1417 ft 80 kts 152°
2026-05-04 01:33 29.55236 -81.17252 1375 ft 82 kts 155°
2026-05-04 01:33 29.54759 -81.16953 1358 ft 74 kts 127°
2026-05-04 01:33 29.54425 -81.16476 1281 ft 78 kts 119°
2026-05-04 01:33 29.54060 -81.16011 1278 ft 77 kts 128°
2026-05-04 01:34 29.53619 -81.15614 1216 ft 83 kts 141°
2026-05-04 01:34 29.53086 -81.15346 1191 ft 85 kts 154°
2026-05-04 01:34 29.52524 -81.15152 1169 ft 83 kts 153°
2026-05-04 01:34 29.51963 -81.14963 1136 ft 85 kts 159°
2026-05-04 01:35 29.51375 -81.14814 1125 ft 83 kts 153°
2026-05-04 01:35 29.51010 -81.14677 1122 ft 82 kts 150°
2026-05-04 01:35 29.50309 -81.14266 1185 ft 85 kts 142°
2026-05-04 01:35 29.49746 -81.13994 1246 ft 88 kts 154°
2026-05-04 01:36 29.49150 -81.13806 1297 ft 92 kts 161°
2026-05-04 01:36 29.48511 -81.13665 1364 ft 89 kts 153°
2026-05-04 01:36 29.47923 -81.13432 1413 ft 90 kts 152°
2026-05-04 01:36 29.47320 -81.13219 1487 ft 90 kts 155°
2026-05-04 01:37 29.46698 -81.13060 1549 ft 90 kts 160°
2026-05-04 01:37 29.46058 -81.12952 1570 ft 94 kts 164°
2026-05-04 01:37 29.45425 -81.12832 1616 ft 90 kts 148°
2026-05-04 01:37 29.44846 -81.12539 1652 ft 90 kts 148°
2026-05-04 01:38 29.44248 -81.12319 1748 ft 85 kts 154°
2026-05-04 01:38 29.43671 -81.12118 1762 ft 87 kts 150°
2026-05-04 01:38 29.43277 -81.11979 1771 ft 90 kts 152°
2026-05-04 01:38 29.42457 -81.11771 1843 ft 90 kts 161°
2026-05-04 01:39 29.41813 -81.11665 1854 ft 93 kts 162°
2026-05-04 01:39 29.41158 -81.11625 1932 ft 93 kts 172°
2026-05-04 01:39 29.40541 -81.11559 1978 ft 88 kts 147°
2026-05-04 01:39 29.40053 -81.11146 1935 ft 88 kts 127°
2026-05-04 01:40 29.39747 -81.10847 1998 ft 83 kts 135°
2026-05-04 01:40 29.39062 -81.10437 2022 ft 85 kts 144°
2026-05-04 01:40 29.38506 -81.10181 2058 ft 86 kts 149°
2026-05-04 01:40 29.37928 -81.09983 2102 ft 86 kts 154°
2026-05-04 01:41 29.37308 -81.09864 2097 ft 92 kts 159°
2026-05-04 01:41 29.36683 -81.09718 2128 ft 90 kts 155°
2026-05-04 01:41 29.36097 -81.09495 2156 ft 89 kts 148°
2026-05-04 01:41 29.35497 -81.09287 2169 ft 93 kts 156°
2026-05-04 01:42 29.34873 -81.09059 2162 ft 93 kts 149°
2026-05-04 01:42 29.34252 -81.08820 2197 ft 93 kts 156°
2026-05-04 01:42 29.33654 -81.08630 2239 ft 88 kts 149°
2026-05-04 01:42 29.33038 -81.08422 2238 ft 92 kts 156°
2026-05-04 01:43 29.32445 -81.08189 2268 ft 87 kts 143°
2026-05-04 01:43 29.31906 -81.07877 2283 ft 87 kts 141°
2026-05-04 01:43 29.31370 -81.07562 2315 ft 85 kts 138°
2026-05-04 01:43 29.30866 -81.07208 2334 ft 85 kts 140°
2026-05-04 01:44 29.30318 -81.06904 2349 ft 88 kts 146°
2026-05-04 01:44 29.29741 -81.06641 2369 ft 89 kts 149°
2026-05-04 01:44 29.29139 -81.06418 2385 ft 90 kts 150°
2026-05-04 01:44 29.28548 -81.06199 2406 ft 90 kts 152°
2026-05-04 01:45 29.27926 -81.05998 2433 ft 90 kts 155°
2026-05-04 01:45 29.27326 -81.05797 2441 ft 90 kts 152°
2026-05-04 01:45 29.26095 -81.05321 2399 ft 97 kts 149°
2026-05-04 01:46 29.25454 -81.05070 2364 ft 96 kts 151°
2026-05-04 01:46 29.24810 -81.04814 2332 ft 100 kts 150°
2026-05-04 01:46 29.24116 -81.04581 2336 ft 103 kts 156°
2026-05-04 01:46 29.23651 -81.04443 2334 ft 104 kts 157°
2026-05-04 01:47 29.22729 -81.04222 2292 ft 96 kts 161°
2026-05-04 01:47 29.22075 -81.04005 2166 ft 96 kts 149°
2026-05-04 01:47 29.21426 -81.03780 2080 ft 96 kts 157°
2026-05-04 01:47 29.20780 -81.03631 2048 ft 92 kts 158°
2026-05-04 01:48 29.20146 -81.03512 1976 ft 93 kts 156°
2026-05-04 01:48 29.19504 -81.03345 1862 ft 97 kts 155°
2026-05-04 01:48 29.18832 -81.03181 1732 ft 95 kts 158°
2026-05-04 01:48 29.18207 -81.03082 1621 ft 91 kts 166°
2026-05-04 01:49 29.17607 -81.03187 1537 ft 94 kts 211°
2026-05-04 01:49 29.17245 -81.03882 1343 ft 104 kts 244°
2026-05-04 01:49 29.16964 -81.04610 1182 ft 104 kts 247°
2026-05-04 01:49 29.16684 -81.05341 1060 ft 96 kts 248°
2026-05-04 01:50 29.16452 -81.06059 903 ft 95 kts 250°
2026-05-04 01:50 29.16447 -81.06707 789 ft 75 kts 331°
2026-05-04 01:50 29.16916 -81.06797 579 ft 70 kts 25°
2026-05-04 01:50 29.17289 -81.06405 277 ft 75 kts 61°
2026-05-04 01:51 29.17515 -81.05891 112 ft 67 kts 64°
2026-05-04 01:51 29.17708 -81.05410 160 ft 70 kts 62°
2026-05-04 01:51 29.17844 -81.05070 290 ft 71 kts 61°
2026-05-04 01:51 29.18184 -81.04349 510 ft 81 kts 57°
2026-05-04 01:52 29.18222 -81.03734 671 ft 86 kts 118°
2026-05-04 01:52 29.17686 -81.03358 788 ft 94 kts 157°
2026-05-04 01:52 29.17119 -81.03702 880 ft 106 kts 239°
2026-05-04 01:52 29.16825 -81.04502 859 ft 107 kts 250°
2026-05-04 01:53 29.16502 -81.05283 840 ft 108 kts 244°
2026-05-04 01:53 29.16213 -81.06046 836 ft 98 kts 260°
2026-05-04 01:53 29.16452 -81.06615 679 ft 77 kts 348°
2026-05-04 01:53 29.16940 -81.06499 449 ft 78 kts 21°
2026-05-04 01:54 29.17367 -81.06158 203 ft 74 kts 51°
2026-05-04 01:54 29.17609 -81.05663 51 ft 64 kts 65°
2026-05-04 01:54 29.17773 -81.05267 29 ft 43 kts 65°
2026-05-04 01:54 29.17836 -81.05175 29 ft 7 kts 345°
2026-05-04 01:55 29.17860 -81.05184 29 ft 4 kts 341°
2026-05-04 01:55 29.17888 -81.05152 29 ft 4 kts 63°
2026-05-04 01:55 29.17916 -81.05086 29 ft 13 kts 65°
2026-05-04 01:55 29.17956 -81.04984 29 ft 8 kts 64°
2026-05-04 01:56 29.17994 -81.04973 29 ft 8 kts 339°
2026-05-04 01:56 29.18061 -81.04983 29 ft 5 kts 48°
2026-05-04 01:56 29.18086 -81.04971 29 ft 1 kts 55°
2026-05-04 01:56 29.18088 -81.04966 29 ft 0 kts 77°
2026-05-04 01:57 29.18088 -81.04964 29 ft 0 kts 68°
2026-05-04 01:57 29.18085 -81.04962 29 ft 0 kts 154°
2026-05-04 01:57 29.18084 -81.04961 29 ft 0 kts 150°